User: anonymous   Login
Location: Unspecified
(0.0000°N, 0.0000°E)
Time: 23:19:52
(UTC+00:00)
Language:

O3B MPOWER F09 - Orbit

View from above orbital plane
View from above orbital plane
View from above satellite
View from above satellite

Ground track
Ground track

The orbit is defined by the following mean orbital elements,

1 64866U          26145.38836314 +.00000000 +00000-0 +00000-0 0 00007
2 64866   0.0568  12.9516 0006051  74.1576 272.9596  5.00115909    07
Epoch (UTC): 25 May 2026 09:19:14
Eccentricity: 0.0006051
inclination: 0.0568°
perigee height: 8057 km
apogee height: 8075 km
right ascension of ascending node: 12.9516°
argument of perigee: 74.1576°
revolutions per day: 5.00115909
mean anomaly at epoch: 272.9596°

The dashed part of the orbit path shows where the satellite is in the earth's shadow,  

DLR